Location: Rounton
(54.4000°N, 1.3500°W)
Time: 03:53:14
(UTC+00:00)

S-56A Canister/Altair - Pass Details

Date: 06 December 2021
Orbit: 633 x 2499 km, 38.9° (Epoch: 17 January)

Event Time Altitude Azimuth Distance (km) Brightness Sun altitude
Rises 02:09:37 0° 251° (WSW) 4,646 - -49.5°
Reaches altitude 10° 02:13:57 10° 237° (WSW) 3,297 - -49.0°
Maximum altitude 02:19:24 21° 193° (SSW) 2,149 - -48.4°
Drops below altitude 10° 02:23:41 10° 146° (SE) 2,496 - -47.9°
Sets 02:26:26 0° 129° (SE) 3,239 - -47.5°
